THOR BURNER 2 R/B

Satellite information

Favourite Embed

Satellite Type and Status

ROCKET BODYIN ORBIT

Key statistics

Satellite THOR BURNER 2 R/B at a glance.

Uptime

19971

Days in orbit

Revolutions

≈ 14.3

Per day

Orbit

SSO

Sun Synchronous Orbit

Inclination

98.9

Latest

Satellite identification and parameters

Extended collection of information and parameters for THOR BURNER 2 R/B.

Object identification

Identified? True

Debris? False

Object name: THOR BURNER 2 R/B

International designator: 1970-070B

Object number (NORAD): 4513

Object ID (CCSDS): 4513

Country: UNITED STATES OF AMERICA (US)

Current information (Y/N): Y

RCS size: LARGE

Orbital parameters

Period: 100.383 minutes

Inclination: 98.915 deg

SMA: 7154.84 km

Apoapsis: 823.687 km

Periapsis: 729.722 km

RAAN: 80.0771 deg

Eccentricy: 0.0065665

Argument of periapsis: 338.426 deg

Mean anomaly: 21.4159 deg

Mean motion: 14.34507798 rev/day

Mean motion (dot): 0.00000391 rev/day2

B* drag term: 0.00015178 1/REarth

Two-line elements (TLE)

Creation date: May 8, 2025, 3:01 a.m.

Reference frame: TEME

Reference center: EARTH

Epoch: May 7, 2025, 8:03 p.m. UTC

TLE line 0: 0 THOR BURNER 2 R/B

TLE line 1: 1 04513U 70070B 25127.83555393 .00000391 00000-0 15178-3 0 9993

TLE line 2: 2 04513 98.9150 80.0771 0065665 338.4260 21.4159 14.34507798851435

Live tracking on map

Real-time ground track for satellite THOR BURNER 2 R/B.

In-orbit conjunctions

A list of the most updated potential collisions computed for object THOR BURNER 2 R/B.

Target Orbit TCA Probability of collision Miss distance Type
CZ-6A DEB SSO 2025-04-24 11:52:20 0.001344211 11.0 (m) DEBRIS
NOAA 16 DEB SSO 2025-01-02 01:53:17 0.0001065958 413.0 (m) DEBRIS
CZ-4 DEB SSO 2024-11-09 10:27:56 0.0007952688 811.0 (m) DEBRIS
CZ-6A DEB LEO 2024-11-05 23:38:13 0.0002183872 746.0 (m) DEBRIS
FENGYUN 1C DEB SSO 2024-09-26 05:44:33 0.001098861 99.0 (m) DEBRIS

Associated space launch

Military meteorological satellite

THOR BURNER 2 R/B was lifted into orbit during the mission ‘Thor Burner 2 | DSAP-5A F2’, on board a Thor Burner 2 space rocket.

The launch took place on Sept. 3, 1970, 8:39 a.m. from Space Launch Complex 10W.

For more information about the launch, click the button.

Launch to space Thor Burner 2 | DSAP-5A F2
Thor Burner 2 | DSAP-5A F2

Agency: N/A

Status: Launch Successful

Launch date: Sept. 3, 1970, 8:39 a.m. UTC

Rocket: Thor Burner 2

Launch pad: Space Launch Complex 10W

Location: Vandenberg SFB, CA, USA

...

Latest news about this satellite

There are no fresh news available about this satellite. Check back as we update our databases every day.


Newsletter sign-up

Weekly statistics, charts and insights to help you stay on top of the space industry.